CAPE
0 0 0 0 0 0 0 0 2 0 0 1 3 5 4 2 1 5 4 4 7 6 5 4 3 2 3 6 6 4 1 0 0 0 0 0 0 0 0 0 0 0 0 0
0 0 0 0 0 0 0 0 1 0 0 3 3 2 2 2 3 6 8 4 6 5 5 4 4 4 2 5 7 5 6 4 4 0 0 2 3 4 3 3 5 2 4 4
0 0 0 0 2 0 0 2 0 0 2 0 0 1 3 5 5 5 5 4 5 3 3 3 3 4 2 4 3 5 6 6 6 7 8 6 4 9 7 8 8 9 9 7
0 0 0 4 1 0 2 1 0 0 1 0 2 7 4 4 4 3 2 3 3 2 2 1 1 2 2 2 2 1 3 4 4 5 7 7 5 9 12 8 11 12 9 6
0 0 0 0 1 0 1 2 0 0 0 0 0 1 4 2 3 3 3 2 1 2 1 1 1 1 2 3 3 3 3 3 2 3 2 5 7 7 6 7 7 7 4 5
0 0 0 0 0 0 0 0 1 0 1 1 0 1 4 1 2 2 2 1 2 1 1 1 1 1 2 2 2 2 3 2 2 2 1 2 2 4 3 3 4 2 3 2
0 0 0 1 0 0 0 0 1 2 4 0 0 1 0 1 1 1 1 1 0 1 1 1 0 1 1 2 2 2 2 2 1 1 1 0 0 0 2 3 2 2 1 1
0 0 0 0 0 0 2 2 1 2 2 3 2 0 0 0 1 1 1 0 0 0 0 0 0 1 1 0 0 0 1 1 1 0 1 1 0 0 0 1 2 2 2 2
0 0 1 1 3 2 1 1 1 1 1 0 0 1 0 1 1 0 0 0 0 0 0 0 0 0 0 1 1 1 1 1 1 1 1 1 0 0 0 0 1 1 1 0
0 0 1 3 1 1 1 1 1 0 0 0 1 0 0 0 0 0 0 0 0 0 0 0 0 0 0 0 0 0 0 0 1 0 0 0 1 0 0 0 0 1 0 0
0 0 1 3 1 1 1 0 1 1 0 0 0 0 0 0 0 0 0 0 0 0 0 1 0 0 0 0 0 0 0 0 0 1 2 1 0 0 0 0 0 0 0 0
1 1 0 1 1 0 0 0 0 1 0 1 0 0 0 0 0 0 0 0 0 0 0 0 0 0 0 0 0 0 0 0 0 0 0 0 0 0 0 1 1 0 0 0
0 0 0 0 0 1 0 0 1 1 0 0 0 0 0 0 0 0 0 0 0 0 0 0 0 0 0 0 0 0 0 0 0 0 0 0 0 0 0 0 0 0 0 0
0 0 0 0 0 0 0 0 1 0 0 0 0 0 0 0 0 0 0 0 0 0 0 0 0 0 0 0 0 0 0 0 0 0 0 0 0 0 0 0 0 0 0 0
0 0 0 0 1 1 0 0 0 0 0 0 0 0 0 0 0 0 0 0 0 0 0 0 0 0 0 0 0 0 0 0 0 0 0 0 0 0 0 0 0 0 0 0
0 0 0 0 0 0 0 0 0 0 0 0 0 0 0 0 0 0 0 0 0 0 0 0 0 0 0 0 0 0 0 0 0 0 0 0 0 0 0 0 0 0 0 0
0 0 0 0 0 0 0 0 0 0 0 0 0 0 0 0 0 0 0 0 0 0 0 0 0 0 0 0 0 0 0 0 0 0 0 0 0 0 0 0 0 0 0 0
0 0 0 0 0 0 0 0 0 0 0 0 0 0 0 0 0 0 0 0 0 0 0 0 0 0 0 0 0 0 0 0 0 0 0 0 0 0 0 0 0 0 0 0
0 0 0 0 0 0 0 0 0 0 0 0 0 0 0 0 0 0 0 0 0 0 0 0 0 0 0 0 0 0 0 0 0 0 0 0 0 0 0 0 0 0 0 0
0 0 0 0 0 0 0 0 0 0 0 0 0 0 0 0 0 0 0 0 0 0 0 0 0 0 0 0 0 0 0 0 0 0 0 0 0 0 0 0 0 0 0 0
0 0 0 0 0 0 0 0 0 0 0 0 0 0 0 0 0 0 0 0 0 0 0 0 0 0 0 0 0 0 0 0 0 0 0 0 0 0 0 0 0 0 0 0
0 0 0 0 0 0 0 0 0 0 0 0 0 0 0 0 0 0 0 0 0 0 0 0 0 0 0 0 0 0 0 0 0 0 0 0 0 0 0 0 0 0 0 0
0 0 0 0 0 0 0 0 0 0 0 0 0 0 0 0 0 0 0 0 0 0 0 0 0 0 0 0 0 0 0 0 0 0 0 0 0 0 0 0 0 0 0 0
0 0 0 0 0 0 0 0 0 0 0 0 0 0 0 0 0 0 0 0 0 0 0 0 0 0 0 0 0 0 0 0 0 0 0 0 0 0 0 0 0 0 0 0
0 0 0 0 0 0 0 0 0 0 0 0 0 0 0 0 0 0 0 0 0 0 0 0 0 0 0 0 0 0 0 0 0 0 0 0 0 0 0 0 0 0 0 0
0 0 0 0 0 0 0 0 0 0 0 0 0 0 0 0 0 0 0 0 0 0 0 0 0 0 0 0 0 0 0 0 0 0 0 0 0 0 0 0 0 0 0 0
0 0 0 0 0 0 0 0 0 0 0 0 0 0 0 0 0 0 0 0 0 0 0 0 0 0 0 0 0 0 0 0 0 0 0 0 0 0 0 0 0 0 0 0
CIN
0 0 -1 -0 0 0 0 0 -2 0 0 0 0 0 0 0 0 0 0 0 0 0 0 0 0 0 0 0 0 0 0 0 0 0 0 0 0 0 0 0 0 0 0 0
0 0 0 0 0 0 0 0 0 0 0 0 0 0 0 0 0 0 0 0 0 0 0 0 0 0 0 0 0 0 0 0 0 0 0 0 0 0 0 0 0 0 0 0
0 0 0 0 -95 0 0 0 0 0 0 0 0 0 0 0 0 0 0 0 0 0 0 0 0 0 0 0 0 0 0 0 0 0 0 0 0 0 0 0 0 0 0 0
0 0 -8 -15 -24 0 0 0 0 0 0 0 0 0 0 0 0 0 0 0 0 0 0 0 0 0 0 0 0 0 0 0 0 0 0 0 0 0 0 0 0 0 0 0
-0 0 -4 0 0 0 -5 0 -0 0 0 0 0 0 0 0 0 0 0 0 0 0 0 0 0 0 0 0 0 0 0 0 0 0 0 0 0 0 0 0 0 0 0 0
0 0 0 0 0 0 0 0 0 0 0 0 0 0 0 0 0 0 0 0 0 0 0 0 0 0 0 0 0 0 0 0 0 0 0 0 0 0 0 0 0 0 0 0
0 0 0 0 0 0 0 0 0 0 0 0 0 0 0 0 0 0 0 0 0 0 0 0 0 0 0 0 0 0 0 0 0 0 0 0 0 0 0 0 0 0 0 0
-6 0 0 0 0 0 0 0 0 0 0 0 0 0 0 0 0 0 0 0 0 0 0 0 0 0 0 0 0 0 0 0 0 0 0 0 0 0 0 0 0 0 0 0
0 0 0 0 0 0 0 0 0 0 0 0 0 0 0 0 0 0 0 0 0 0 0 0 0 0 0 0 0 0 0 0 0 0 0 0 0 0 0 0 0 0 0 0
0 0 0 0 0 0 0 0 0 0 0 -1 0 0 0 0 0 0 0 0 0 0 0 0 0 0 0 0 0 0 0 0 0 0 0 0 0 0 0 0 0 0 0 0
0 0 0 0 0 0 0 0 0 -0 -0 0 0 0 0 0 0 0 0 0 0 0 0 0 0 0 0 0 0 0 0 0 0 0 0 0 0 0 0 0 0 0 0 0
0 0 0 0 0 0 0 0 0 0 0 0 0 0 0 0 0 0 0 0 0 0 0 0 0 0 0 0 0 0 0 0 0 0 0 0 0 0 -0 -0 -0 -0 0 0
0 0 0 0 -0 0 0 0 0 0 0 0 0 0 0 0 0 0 0 0 0 0 0 0 0 0 0 0 0 0 0 0 0 0 0 0 0 0 0 0 0 0 0 0
0 0 0 0 0 0 0 0 -0 0 -0 -0 -0 0 0 0 0 0 0 0 0 0 0 0 0 0 0 0 0 0 0 0 0 0 0 0 0 0 0 0 0 0 0 0
0 0 0 0 0 0 0 0 0 0 0 0 0 0 0 0 0 0 0 0 0 0 0 0 0 0 0 0 0 0 0 0 0 0 0 0 0 0 0 0 0 0 0 0
0 0 0 0 0 0 0 0 0 0 0 0 0 0 0 0 0 0 0 0 0 0 0 0 0 0 0 0 0 0 0 0 0 0 0 0 0 0 0 0 0 0 0 0
0 0 0 0 0 0 0 0 0 0 0 0 0 0 0 0 0 0 0 0 0 0 0 0 0 0 0 0 0 0 0 0 0 0 0 0 0 0 0 0 0 0 0 0
0 0 0 0 0 0 0 0 0 0 0 0 0 0 0 0 0 0 0 0 0 0 0 0 0 0 0 0 0 0 0 0 0 0 0 0 0 0 0 0 0 0 0 0
0 0 0 0 0 0 0 0 0 0 0 0 0 0 0 0 0 0 0 0 0 0 0 0 0 0 0 0 0 0 0 0 0 0 0 0 0 0 0 0 0 0 0 0
0 0 0 0 0 0 0 0 0 0 0 0 0 0 0 0 0 0 0 0 0 0 0 0 0 0 0 0 0 0 0 0 0 0 0 0 0 0 0 0 0 0 0 0
0 0 0 0 0 0 0 0 0 0 0 0 0 0 0 0 0 0 0 0 0 0 0 0 0 0 0 0 0 0 0 0 0 0 0 0 0 0 0 0 0 0 0 0
0 0 0 0 0 0 0 0 0 0 0 0 0 0 0 0 0 0 0 0 0 0 0 0 0 0 0 0 0 0 0 0 0 0 0 0 0 0 0 0 0 0 0 0
0 0 0 0 0 0 0 0 0 0 0 0 0 0 0 0 0 0 0 0 0 0 0 0 0 0 0 0 0 0 0 0 0 0 0 0 0 0 0 0 0 0 0 0
0 0 0 0 0 0 0 0 0 0 0 0 0 0 0 0 0 0 0 0 0 0 0 0 0 0 0 0 0 0 0 0 0 0 0 0 0 0 0 0 0 0 0 0
0 0 0 0 0 0 0 0 0 0 0 0 0 0 0 0 0 0 0 0 0 0 0 0 0 0 0 0 0 0 0 0 0 0 0 0 0 0 0 0 0 0 0 0
0 0 0 0 0 0 0 0 0 0 0 0 0 0 0 0 0 0 0 0 0 0 0 0 0 0 0 0 0 0 0 0 0 0 0 0 0 0 0 0 0 0 0 0
0 0 0 0 0 0 0 0 0 0 0 0 0 0 0 0 0 0 0 0 0 0 0 0 0 0 0 0 0 0 0 0 0 0 0 0 0 0 0 0 0 0 0 0
Wind_Speed
35 38 37 39 37 37 35 39 33 25 18 15 17 17 20 23 24 26 26 26 25 25 23 22 21 20 19 17 13 10 9 9 12 10 13 11 10 9 9 9 9 8 8 8
35 34 37 38 36 29 31 25 24 19 14 13 16 18 22 23 25 25 25 26 25 25 24 22 21 19 18 16 13 9 10 11 14 12 12 13 11 11 10 9 10 9 10 10
31 27 30 33 33 30 20 12 12 11 11 15 18 19 22 22 23 24 24 25 25 25 24 21 20 19 16 15 12 9 10 12 12 14 14 13 13 12 11 10 10 11 11 11
28 26 26 19 17 4 1 7 12 14 15 16 16 17 20 21 22 23 24 24 25 24 24 20 18 17 15 13 12 11 11 13 14 13 14 13 10 12 13 12 12 11 12 12
24 24 22 17 10 13 17 12 17 18 19 19 13 16 20 21 22 22 22 23 23 23 23 19 18 15 13 12 12 11 11 13 15 14 13 13 11 11 12 11 11 12 12 12
23 21 19 16 22 21 16 17 20 20 21 21 18 21 20 20 19 20 20 21 20 21 21 20 19 16 15 12 12 12 12 13 13 12 10 12 12 11 9 9 9 10 11 13
26 23 14 16 20 19 19 19 19 19 19 19 17 16 15 17 18 18 18 18 18 19 20 21 19 17 17 12 14 11 13 13 13 12 11 10 10 10 8 6 7 9 10 12
15 12 11 21 15 13 13 15 16 17 17 17 17 16 16 17 16 17 17 17 18 18 19 20 21 18 17 16 15 14 13 14 14 14 13 11 9 10 8 8 8 8 9 9
13 10 13 15 11 11 12 13 15 15 16 16 16 16 16 15 16 16 16 16 17 18 18 19 20 20 19 17 18 14 14 16 15 15 14 14 12 11 11 11 9 9 8 8
11 11 12 12 14 15 15 16 15 15 15 15 16 16 15 15 15 16 17 17 17 18 19 20 21 21 21 20 18 16 16 17 17 16 15 15 15 15 12 12 10 10 10 10
9 11 12 15 16 15 16 14 16 17 16 16 16 16 16 16 16 16 16 17 17 18 18 20 20 20 20 20 19 17 17 17 17 16 16 17 17 15 14 14 12 12 12 13
17 19 15 15 15 14 14 15 14 15 16 16 16 15 16 17 17 17 16 16 17 18 18 19 20 20 19 19 19 19 19 18 17 17 17 16 16 16 18 18 17 16 15 14
16 14 12 12 13 13 12 12 14 15 16 16 16 14 15 16 16 16 16 16 17 18 17 18 19 19 20 21 20 19 18 18 18 17 16 16 16 16 16 17 17 17 17 17
16 11 14 15 12 11 11 11 12 13 14 16 17 15 14 14 15 16 16 17 18 18 18 18 19 21 22 23 21 21 20 20 19 19 18 18 17 17 17 17 17 18 19 19
14 13 12 11 11 9 10 10 12 13 13 15 17 17 14 14 15 16 17 18 18 19 20 20 21 23 24 23 22 21 21 20 20 20 19 19 18 17 17 17 17 18 19 21
17 16 14 13 13 12 11 11 12 12 12 14 15 15 15 16 16 17 18 19 18 20 21 21 22 23 25 23 22 21 22 21 21 20 20 19 18 17 18 19 20 19 20 22
14 15 15 16 14 14 13 11 11 11 11 13 14 14 15 16 17 18 19 20 20 21 21 22 23 23 24 24 23 22 22 22 21 21 22 21 20 20 19 20 20 20 21 23
15 15 15 15 15 14 13 12 12 12 12 14 15 15 16 17 17 18 18 19 21 22 23 24 24 24 25 26 25 23 23 22 22 23 22 22 22 22 21 19 20 20 21 22
14 13 13 14 13 13 12 13 13 13 13 14 15 16 17 17 18 19 19 17 21 23 24 26 24 25 25 26 25 24 24 23 23 24 23 22 22 23 23 23 22 21 21 22
19 19 19 18 17 16 16 15 15 16 16 17 17 17 18 18 18 19 20 21 22 22 23 25 25 26 26 27 27 26 26 26 25 25 24 25 24 24 23 23 23 23 23 23
16 18 18 17 17 16 16 16 16 16 16 16 17 17 18 18 19 19 18 22 22 22 23 24 27 27 26 28 27 27 27 27 27 26 26 26 26 25 24 24 25 24 24 25
15 16 17 18 17 16 16 16 16 16 17 17 18 18 19 19 20 21 22 21 22 24 22 24 27 27 26 27 27 26 26 27 27 27 27 27 27 27 26 25 25 25 25 25
13 14 15 16 16 16 16 16 16 16 16 17 18 19 20 21 21 20 23 23 23 24 23 24 26 26 25 26 26 26 27 27 27 27 26 26 27 27 27 27 26 26 26 24
13 14 14 15 15 16 15 15 15 15 16 16 17 19 21 23 23 23 22 22 24 24 23 23 25 26 26 26 27 26 27 27 27 25 25 26 26 26 26 26 26 25 24 24
13 13 14 14 13 14 15 14 14 15 16 15 17 19 20 20 24 23 23 22 23 24 25 22 22 24 25 26 27 27 27 27 26 26 28 27 26 26 26 26 25 24 24 24
13 12 13 16 15 16 14 17 19 18 20 22 22 21 19 21 22 24 24 23 23 24 24 23 23 23 24 25 25 25 26 26 26 26 24 24 24 24 25 25 25 24 24 24
12 13 13 15 16 18 20 21 22 23 24 25 26 27 27 24 24 25 25 25 25 25 26 25 24 23 23 24 25 24 25 25 25 24 24 25 24 24 25 24 23 23 23 23
Wind_Direction
269 261 259 250 255 256 259 252 251 262 281 292 316 328 328 334 335 333 330 328 326 322 311 306 301 303 299 294 290 277 250 240 251 249 251 261 275 285 294 303 310 315 331 337
269 259 247 240 248 252 262 264 259 258 281 332 322 326 333 332 333 334 328 329 327 323 317 308 302 302 300 296 292 288 270 260 259 260 263 265 275 279 286 296 307 313 315 321
258 250 254 245 239 243 269 287 255 263 298 324 325 328 329 327 335 339 336 335 332 330 324 315 307 301 304 297 298 293 288 287 284 275 271 269 277 276 278 289 299 305 311 313
242 242 234 254 258 241 339 319 333 336 326 325 332 340 337 338 339 345 345 343 341 338 335 325 316 310 311 308 301 303 306 308 295 287 284 285 282 278 280 285 293 301 307 311
223 226 233 237 271 277 256 284 326 322 323 324 339 340 336 341 349 351 347 345 346 345 347 335 337 321 333 321 314 321 307 313 319 298 288 291 291 284 283 287 292 300 306 309
229 235 240 252 268 274 275 270 316 323 317 317 312 307 322 340 345 352 355 351 345 347 349 349 350 350 359 342 333 333 335 322 332 326 316 307 299 294 291 295 299 306 312 314
232 237 257 298 291 284 264 278 319 328 331 340 334 338 356 356 352 354 355 352 349 352 353 353 349 346 355 341 348 341 353 354 350 346 342 336 334 315 311 306 315 319 320 322
254 256 269 315 301 297 309 327 339 343 348 0 6 7 2 356 352 351 349 345 345 347 349 353 359 356 360 359 352 358 355 1 3 357 348 348 357 350 331 336 320 320 321 330
286 290 344 340 343 330 332 343 345 354 358 7 10 8 6 1 358 358 355 351 352 351 352 354 0 4 6 358 8 355 0 5 1 2 359 356 353 353 341 339 342 335 333 341
305 328 335 328 341 355 356 3 358 1 6 10 17 15 9 6 3 1 358 356 354 355 358 360 359 3 13 15 13 9 8 10 9 9 1 1 1 2 355 351 331 339 331 332
325 315 325 332 341 347 2 355 8 14 16 16 16 8 13 7 4 4 3 4 4 4 4 3 2 2 6 11 7 4 7 8 9 7 9 11 13 4 358 357 345 335 331 333
283 289 301 310 327 328 355 8 356 12 15 13 15 14 19 20 18 14 10 7 8 7 5 4 3 2 358 355 2 8 10 9 9 7 6 7 7 10 13 13 9 3 359 355
300 313 330 326 324 327 344 346 7 12 14 17 16 17 20 23 17 17 10 4 5 3 357 353 355 354 351 354 0 358 355 355 358 356 358 359 0 1 0 360 3 1 357 355
319 327 325 310 323 339 350 356 1 3 9 23 33 14 7 8 7 3 360 359 357 357 352 349 353 351 349 3 360 360 1 358 355 354 354 351 344 343 344 344 343 343 353 356
340 350 357 352 341 341 350 352 353 2 3 19 30 29 5 357 354 353 357 360 1 360 357 354 353 351 349 354 1 1 1 4 3 0 359 359 359 1 359 357 353 348 347 345
35 28 13 4 360 353 343 333 336 337 350 9 17 11 9 7 359 351 351 353 356 354 355 354 353 348 349 351 355 354 351 351 353 353 352 351 351 351 348 346 343 339 339 335
92 63 38 31 19 23 14 360 358 359 358 4 12 15 16 16 14 11 9 12 11 7 360 356 352 352 353 351 352 353 351 351 350 346 344 344 343 342 341 339 338 336 332 332
22 11 26 42 39 29 15 14 10 2 9 18 24 24 20 19 20 20 19 16 11 5 359 355 355 352 349 347 347 348 347 347 344 339 338 338 337 335 335 334 332 331 329 328
358 356 358 12 14 15 11 9 7 15 17 26 28 23 21 20 18 13 13 15 2 356 354 351 353 352 349 348 347 346 342 342 341 338 335 334 332 331 329 327 326 325 324 324
45 46 48 48 38 39 40 35 38 37 38 40 36 30 26 22 17 15 12 6 3 360 356 352 351 347 342 340 340 341 338 337 334 333 330 328 327 325 325 323 322 321 321 321
28 39 47 43 41 38 42 45 40 34 30 25 24 21 22 22 14 8 7 355 357 357 353 353 349 343 341 339 339 338 336 333 332 330 329 327 325 323 322 321 320 319 318 319
34 44 51 54 50 47 45 45 41 38 36 33 24 17 14 10 7 5 3 359 357 355 355 350 347 344 342 340 339 338 336 333 331 329 327 326 324 323 323 323 321 321 320 320
36 43 49 54 53 51 48 46 45 40 32 20 16 12 7 4 2 358 351 355 352 351 349 348 348 345 341 340 339 337 334 332 330 327 326 325 323 321 319 317 319 319 319 320
48 50 53 57 58 51 42 44 35 28 22 18 13 7 2 357 357 356 356 353 350 348 346 344 344 344 341 337 335 333 332 329 328 328 328 327 325 324 321 320 318 319 321 321
54 57 64 67 51 34 26 27 23 17 13 8 3 359 357 357 353 353 352 350 348 347 345 343 340 339 339 337 332 330 330 329 328 325 323 323 323 321 320 320 320 320 320 319
77 66 41 15 21 16 19 11 3 4 358 357 355 354 352 351 351 349 348 346 344 342 340 339 336 334 333 333 333 332 330 328 327 325 325 325 323 323 323 322 321 321 321 321
27 27 25 18 11 6 2 360 357 355 354 352 348 349 350 348 346 344 344 342 340 338 337 335 334 333 331 331 329 329 329 329 328 327 326 325 323 322 322 323 323 322 322 322